When you browse on this site, cookies collect data to enhance your experience and personalize the content and advertising you see.
Visit our Privacy Policy to learn more. By continuing to use the site, you agree to this use of cookies and data.
EN

Hourly Weather Etchmiadzin

Today, 8 July, Wednesday

Time Temperature Precipitation Wind Pressure Humidity
00:00 +26°C° 0 mm 1 mps 684 mmHg 44%
01:00 +25°C° 0 mm 1 mps 683 mmHg 46%
02:00 +24°C° 0 mm 1 mps 683 mmHg 48%
03:00 +24°C° 0 mm 1 mps 683 mmHg 51%
04:00 +24°C° 0 mm 2 mps 683 mmHg 50%
05:00 +25°C° 0 mm 2 mps 683 mmHg 49%
06:00 +26°C° 0 mm 2 mps 684 mmHg 48%
07:00 +27°C° 0 mm 2 mps 684 mmHg 44%
08:00 +29°C° 0 mm 2 mps 684 mmHg 39%
09:00 +31°C° 0 mm 2 mps 684 mmHg 35%
10:00 +34°C° 0 mm 2 mps 684 mmHg 31%
11:00 +35°C° 0 mm 3 mps 684 mmHg 28%
12:00 +37°C° 0 mm 4 mps 684 mmHg 25%
13:00 +37°C° 0 mm 3 mps 684 mmHg 23%
14:00 +38°C° 0 mm 2 mps 684 mmHg 21%
15:00 +39°C° 0 mm 1 mps 684 mmHg 19%
16:00 +37°C° 0 mm 2 mps 684 mmHg 23%
17:00 +36°C° 0 mm 4 mps 683 mmHg 27%
18:00 +34°C° 0 mm 5 mps 683 mmHg 30%
19:00 +32°C° 0.1 mm 4 mps 683 mmHg 36%
20:00 +29°C° 0.1 mm 4 mps 684 mmHg 43%
21:00 +26°C° 0.1 mm 3 mps 684 mmHg 49%
22:00 +26°C° 0 mm 3 mps 684 mmHg 51%
23:00 +25°C° 0 mm 3 mps 684 mmHg 52%

Tomorrow, 9 July, Thursday

Time Temperature Precipitation Wind Pressure Humidity
00:00 +24°C° 0 mm 3 mps 684 mmHg 54%
01:00 +24°C° 0 mm 3 mps 684 mmHg 56%
02:00 +22°C° 0 mm 3 mps 684 mmHg 57%
03:00 +23°C° 0 mm 2 mps 684 mmHg 59%
04:00 +23°C° 0 mm 2 mps 684 mmHg 58%
05:00 +24°C° 0 mm 2 mps 684 mmHg 57%
06:00 +24°C° 0 mm 2 mps 685 mmHg 56%
07:00 +26°C° 0.1 mm 2 mps 685 mmHg 51%
08:00 +28°C° 0.1 mm 2 mps 685 mmHg 46%
09:00 +30°C° 0.1 mm 2 mps 685 mmHg 41%
10:00 +31°C° 0.1 mm 2 mps 685 mmHg 37%
11:00 +34°C° 0.1 mm 2 mps 685 mmHg 33%
12:00 +35°C° 0.1 mm 2 mps 685 mmHg 30%
13:00 +36°C° 0.1 mm 2 mps 685 mmHg 28%
14:00 +36°C° 0.1 mm 2 mps 685 mmHg 27%
15:00 +37°C° 0.1 mm 2 mps 685 mmHg 25%
16:00 +34°C° 0.3 mm 3 mps 685 mmHg 35%
17:00 +32°C° 0.3 mm 4 mps 684 mmHg 44%
18:00 +28°C° 0.3 mm 5 mps 684 mmHg 54%
19:00 +27°C° 0.2 mm 4 mps 684 mmHg 57%
20:00 +26°C° 0.2 mm 3 mps 685 mmHg 60%
21:00 +25°C° 0.2 mm 2 mps 685 mmHg 63%
22:00 +24°C° 0.3 mm 1 mps 685 mmHg 64%
23:00 +24°C° 0.3 mm 1 mps 685 mmHg 66%

Day after tomorrow, 10 July, Friday

Time Temperature Precipitation Wind Pressure Humidity
00:00 +23°C° 0.3 mm 1 mps 685 mmHg 68%
01:00 +23°C° 0.2 mm 1 mps 685 mmHg 68%
02:00 +22°C° 0.2 mm 1 mps 685 mmHg 69%
03:00 +22°C° 0.2 mm 1 mps 685 mmHg 70%
04:00 +21°C° 0.5 mm 2 mps 685 mmHg 69%
05:00 +21°C° 0.5 mm 2 mps 685 mmHg 69%
06:00 +23°C° 0.5 mm 2 mps 685 mmHg 68%
07:00 +24°C° 0.4 mm 2 mps 686 mmHg 63%
08:00 +26°C° 0.4 mm 1 mps 686 mmHg 57%
09:00 +28°C° 0.4 mm 1 mps 686 mmHg 52%
10:00 +29°C° 0.3 mm 1 mps 686 mmHg 48%
11:00 +30°C° 0.3 mm 1 mps 686 mmHg 44%
12:00 +32°C° 0.3 mm 2 mps 686 mmHg 39%
13:00 +31°C° 0.2 mm 3 mps 686 mmHg 41%
14:00 +32°C° 0.2 mm 4 mps 685 mmHg 42%
15:00 +32°C° 0.2 mm 5 mps 685 mmHg 43%
16:00 +30°C° 0.2 mm 5 mps 685 mmHg 45%
17:00 +30°C° 0.2 mm 5 mps 685 mmHg 46%
18:00 +29°C° 0.2 mm 5 mps 686 mmHg 48%
19:00 +27°C° 0.3 mm 4 mps 686 mmHg 53%
20:00 +26°C° 0.3 mm 3 mps 686 mmHg 59%
21:00 +24°C° 0.3 mm 1 mps 686 mmHg 64%
22:00 +24°C° 0.4 mm 1 mps 686 mmHg 66%
23:00 +23°C° 0.4 mm 1 mps 686 mmHg 69%

11 July, Saturday

Time Temperature Precipitation Wind Pressure Humidity
00:00 +23°C° 0.4 mm 1 mps 686 mmHg 71%
01:00 +22°C° 0.3 mm 1 mps 686 mmHg 72%
02:00 +20°C° 0.3 mm 0 mps 685 mmHg 73%
03:00 +19°C° 0.3 mm 0 mps 685 mmHg 74%
04:00 +20°C° 0.2 mm 0 mps 686 mmHg 72%
05:00 +20°C° 0.2 mm 0 mps 686 mmHg 70%
06:00 +21°C° 0.2 mm 0 mps 686 mmHg 69%
07:00 +24°C° 0.1 mm 1 mps 686 mmHg 63%
08:00 +26°C° 0.1 mm 1 mps 686 mmHg 58%
09:00 +27°C° 0.1 mm 1 mps 686 mmHg 53%
10:00 +29°C° 0.3 mm 1 mps 686 mmHg 48%
11:00 +30°C° 0.3 mm 1 mps 686 mmHg 43%
12:00 +32°C° 0.3 mm 1 mps 686 mmHg 39%
13:00 +34°C° 0.2 mm 2 mps 686 mmHg 36%
14:00 +34°C° 0.2 mm 2 mps 686 mmHg 34%
15:00 +35°C° 0.2 mm 2 mps 686 mmHg 32%
16:00 +35°C° 0.1 mm 2 mps 686 mmHg 34%
17:00 +34°C° 0.1 mm 3 mps 686 mmHg 35%
18:00 +34°C° 0.1 mm 3 mps 685 mmHg 37%
19:00 +30°C° 1.1 mm 3 mps 685 mmHg 47%
20:00 +27°C° 1.1 mm 3 mps 685 mmHg 57%
21:00 +24°C° 1.1 mm 3 mps 685 mmHg 68%
22:00 +24°C° 1.1 mm 2 mps 685 mmHg 70%
23:00 +24°C° 1.1 mm 2 mps 685 mmHg 73%

12 July, Sunday

Time Temperature Precipitation Wind Pressure Humidity
00:00 +23°C° 1.1 mm 2 mps 685 mmHg 76%
01:00 +23°C° 0.3 mm 1 mps 684 mmHg 76%
02:00 +22°C° 0.3 mm 1 mps 684 mmHg 76%
03:00 +22°C° 0.3 mm 1 mps 684 mmHg 76%
04:00 +23°C° 0 mm 1 mps 684 mmHg 74%
05:00 +23°C° 0 mm 1 mps 684 mmHg 72%
06:00 +23°C° 0 mm 1 mps 684 mmHg 70%
07:00 +25°C° 0.1 mm 1 mps 684 mmHg 65%
08:00 +26°C° 0.1 mm 1 mps 684 mmHg 59%
09:00 +28°C° 0.1 mm 1 mps 684 mmHg 53%
10:00 +29°C° 0.2 mm 1 mps 684 mmHg 49%
11:00 +30°C° 0.2 mm 2 mps 684 mmHg 44%
12:00 +32°C° 0.2 mm 2 mps 684 mmHg 40%
13:00 +32°C° 0.1 mm 2 mps 684 mmHg 37%
14:00 +34°C° 0.1 mm 2 mps 684 mmHg 34%
15:00 +35°C° 0.1 mm 2 mps 684 mmHg 31%
16:00 +35°C° 0.1 mm 2 mps 683 mmHg 33%
17:00 +34°C° 0.1 mm 3 mps 683 mmHg 34%
18:00 +34°C° 0.1 mm 3 mps 683 mmHg 36%
19:00 +31°C° 0.1 mm 3 mps 683 mmHg 40%
20:00 +29°C° 0.1 mm 4 mps 683 mmHg 44%
21:00 +27°C° 0.1 mm 4 mps 683 mmHg 48%
22:00 +26°C° 0.2 mm 3 mps 683 mmHg 51%
23:00 +25°C° 0.2 mm 2 mps 683 mmHg 55%

13 July, Monday

Time Temperature Precipitation Wind Pressure Humidity
00:00 +25°C° 0.2 mm 2 mps 683 mmHg 58%
01:00 +24°C° 0.4 mm 1 mps 682 mmHg 61%
02:00 +24°C° 0.4 mm 1 mps 682 mmHg 65%
03:00 +23°C° 0.4 mm 1 mps 682 mmHg 68%
04:00 +23°C° 0.1 mm 1 mps 682 mmHg 67%
05:00 +24°C° 0.1 mm 1 mps 682 mmHg 66%
06:00 +24°C° 0.1 mm 1 mps 682 mmHg 65%
07:00 +26°C° 0.1 mm 1 mps 682 mmHg 59%
08:00 +27°C° 0.1 mm 1 mps 682 mmHg 53%
09:00 +29°C° 0.1 mm 2 mps 682 mmHg 47%
10:00 +30°C° 0.1 mm 1 mps 682 mmHg 43%
11:00 +32°C° 0.1 mm 1 mps 682 mmHg 39%
12:00 +33°C° 0.1 mm 1 mps 682 mmHg 36%
13:00 +34°C° 0.1 mm 1 mps 682 mmHg 33%
14:00 +35°C° 0.1 mm 2 mps 682 mmHg 31%
15:00 +36°C° 0.1 mm 2 mps 682 mmHg 28%
16:00 +35°C° 0.2 mm 3 mps 681 mmHg 33%
17:00 +33°C° 0.2 mm 4 mps 681 mmHg 39%
18:00 +32°C° 0.2 mm 5 mps 681 mmHg 44%
19:00 +29°C° 0.4 mm 4 mps 682 mmHg 48%
20:00 +27°C° 0.4 mm 3 mps 682 mmHg 52%
21:00 +25°C° 0.4 mm 2 mps 682 mmHg 56%
22:00 +25°C° 0.1 mm 2 mps 682 mmHg 57%
23:00 +25°C° 0.1 mm 1 mps 682 mmHg 59%
Show more